When you browse on this site, cookies collect data to enhance your experience and personalize the content and advertising you see.
Visit our Privacy Policy to learn more. By continuing to use the site, you agree to this use of cookies and data.
  • Em Portugal
  • Lista de países
  • Para 7 dias
  • Temperatura da água
  • Mapa do tempo
  • Widgets de tempo
  • user-avatar
    Iniciar Sessão

    Previsão horária em Chester

    Hoje, 7 Junho, Domingo

    Tempo Temperatura Precipitação Vento Pressão Humidade
    00:00 +23°C° 0 mm 4 m/s 757 mmHg 46%
    01:00 +22°C° 0 mm 3 m/s 757 mmHg 50%
    02:00 +21°C° 0 mm 3 m/s 757 mmHg 53%
    03:00 +20°C° 0 mm 3 m/s 757 mmHg 56%
    04:00 +20°C° 0 mm 3 m/s 757 mmHg 59%
    05:00 +20°C° 0 mm 4 m/s 758 mmHg 59%
    06:00 +20°C° 0 mm 4 m/s 758 mmHg 58%
    07:00 +20°C° 0 mm 5 m/s 759 mmHg 58%
    08:00 +21°C° 0 mm 5 m/s 759 mmHg 53%
    09:00 +22°C° 0 mm 5 m/s 759 mmHg 48%
    10:00 +25°C° 0 mm 5 m/s 759 mmHg 43%
    11:00 +25°C° 0 mm 5 m/s 759 mmHg 41%
    12:00 +26°C° 0 mm 5 m/s 759 mmHg 39%
    13:00 +27°C° 0 mm 5 m/s 759 mmHg 36%
    14:00 +27°C° 0 mm 5 m/s 759 mmHg 37%
    15:00 +27°C° 0 mm 5 m/s 758 mmHg 37%
    16:00 +27°C° 0 mm 5 m/s 758 mmHg 38%
    17:00 +26°C° 0 mm 4 m/s 758 mmHg 40%
    18:00 +25°C° 0 mm 4 m/s 759 mmHg 43%
    19:00 +23°C° 0 mm 4 m/s 759 mmHg 45%
    20:00 +22°C° 0 mm 4 m/s 759 mmHg 46%
    21:00 +21°C° 0 mm 4 m/s 760 mmHg 47%
    22:00 +20°C° 0 mm 4 m/s 760 mmHg 47%
    23:00 +19°C° 0 mm 4 m/s 760 mmHg 50%

    Amanhã, 8 Junho, Segunda-feira

    Tempo Temperatura Precipitação Vento Pressão Humidade
    00:00 +18°C° 0 mm 3 m/s 761 mmHg 52%
    01:00 +18°C° 0 mm 3 m/s 761 mmHg 54%
    02:00 +17°C° 0 mm 3 m/s 761 mmHg 56%
    03:00 +17°C° 0 mm 3 m/s 761 mmHg 57%
    04:00 +16°C° 0 mm 3 m/s 761 mmHg 59%
    05:00 +17°C° 0 mm 3 m/s 761 mmHg 57%
    06:00 +18°C° 0 mm 3 m/s 762 mmHg 55%
    07:00 +18°C° 0 mm 3 m/s 762 mmHg 53%
    08:00 +20°C° 0 mm 3 m/s 762 mmHg 48%
    09:00 +22°C° 0 mm 3 m/s 762 mmHg 43%
    10:00 +24°C° 0 mm 2 m/s 762 mmHg 38%
    11:00 +25°C° 0 mm 2 m/s 762 mmHg 36%
    12:00 +27°C° 0 mm 3 m/s 762 mmHg 33%
    13:00 +28°C° 0 mm 3 m/s 762 mmHg 31%
    14:00 +28°C° 0 mm 3 m/s 761 mmHg 32%
    15:00 +28°C° 0 mm 3 m/s 761 mmHg 34%
    16:00 +28°C° 0 mm 3 m/s 761 mmHg 35%
    17:00 +27°C° 0 mm 3 m/s 761 mmHg 40%
    18:00 +25°C° 0 mm 3 m/s 761 mmHg 45%
    19:00 +24°C° 0 mm 3 m/s 761 mmHg 49%
    20:00 +24°C° 0 mm 2 m/s 761 mmHg 51%
    21:00 +23°C° 0 mm 2 m/s 762 mmHg 53%
    22:00 +21°C° 0 mm 2 m/s 762 mmHg 55%
    23:00 +21°C° 0 mm 2 m/s 762 mmHg 56%

    Depois de amanhã, 9 Junho, Terça-feira

    Tempo Temperatura Precipitação Vento Pressão Humidade
    00:00 +20°C° 0 mm 2 m/s 762 mmHg 58%
    01:00 +20°C° 0 mm 1 m/s 762 mmHg 60%
    02:00 +20°C° 0 mm 1 m/s 762 mmHg 61%
    03:00 +20°C° 0 mm 1 m/s 762 mmHg 63%
    04:00 +19°C° 0 mm 1 m/s 762 mmHg 64%
    05:00 +20°C° 0 mm 1 m/s 762 mmHg 62%
    06:00 +21°C° 0 mm 1 m/s 763 mmHg 60%
    07:00 +22°C° 0 mm 1 m/s 763 mmHg 58%
    08:00 +24°C° 0 mm 1 m/s 763 mmHg 53%
    09:00 +26°C° 0 mm 2 m/s 762 mmHg 47%
    10:00 +27°C° 0 mm 2 m/s 762 mmHg 42%
    11:00 +28°C° 0 mm 2 m/s 762 mmHg 41%
    12:00 +29°C° 0 mm 2 m/s 762 mmHg 39%
    13:00 +30°C° 0 mm 3 m/s 762 mmHg 38%
    14:00 +30°C° 0 mm 3 m/s 761 mmHg 40%
    15:00 +30°C° 0 mm 3 m/s 761 mmHg 42%
    16:00 +30°C° 0 mm 3 m/s 761 mmHg 44%
    17:00 +29°C° 0 mm 3 m/s 761 mmHg 49%
    18:00 +27°C° 0 mm 3 m/s 761 mmHg 54%
    19:00 +26°C° 0 mm 3 m/s 761 mmHg 60%
    20:00 +25°C° 0 mm 3 m/s 761 mmHg 60%
    21:00 +24°C° 0 mm 3 m/s 761 mmHg 61%
    22:00 +22°C° 0 mm 4 m/s 762 mmHg 61%
    23:00 +21°C° 0 mm 3 m/s 762 mmHg 62%

    10 Junho, Quarta-feira

    Tempo Temperatura Precipitação Vento Pressão Humidade
    00:00 +21°C° 0 mm 3 m/s 761 mmHg 64%
    01:00 +20°C° 0 mm 3 m/s 761 mmHg 65%
    02:00 +20°C° 0 mm 3 m/s 761 mmHg 69%
    03:00 +19°C° 0 mm 3 m/s 761 mmHg 72%
    04:00 +19°C° 0 mm 3 m/s 761 mmHg 75%
    05:00 +20°C° 0 mm 3 m/s 761 mmHg 76%
    06:00 +21°C° 0 mm 3 m/s 761 mmHg 76%
    07:00 +22°C° 0 mm 4 m/s 761 mmHg 77%
    08:00 +25°C° 0 mm 4 m/s 761 mmHg 74%
    09:00 +26°C° 0 mm 5 m/s 761 mmHg 71%
    10:00 +28°C° 0 mm 5 m/s 761 mmHg 68%
    11:00 +28°C° 0 mm 6 m/s 761 mmHg 68%
    12:00 +28°C° 0 mm 6 m/s 761 mmHg 68%
    13:00 +28°C° 0 mm 6 m/s 761 mmHg 68%
    14:00 +28°C° 0 mm 6 m/s 760 mmHg 69%
    15:00 +28°C° 0 mm 6 m/s 760 mmHg 70%
    16:00 +28°C° 0 mm 6 m/s 760 mmHg 71%
    17:00 +27°C° 0 mm 6 m/s 760 mmHg 73%
    18:00 +27°C° 0 mm 6 m/s 760 mmHg 75%
    19:00 +26°C° 0 mm 6 m/s 760 mmHg 76%
    20:00 +26°C° 1.2 mm 5 m/s 761 mmHg 80%
    21:00 +25°C° 1.2 mm 5 m/s 761 mmHg 84%
    22:00 +23°C° 1.2 mm 5 m/s 762 mmHg 87%
    23:00 +23°C° 0.5 mm 4 m/s 762 mmHg 87%

    11 Junho, Quinta-feira

    Tempo Temperatura Precipitação Vento Pressão Humidade
    00:00 +24°C° 0.5 mm 3 m/s 762 mmHg 87%
    01:00 +24°C° 0.5 mm 3 m/s 762 mmHg 88%
    02:00 +22°C° 0 mm 3 m/s 762 mmHg 80%
    03:00 +21°C° 0 mm 3 m/s 763 mmHg 73%
    04:00 +21°C° 0 mm 4 m/s 763 mmHg 65%
    05:00 +21°C° 0 mm 3 m/s 763 mmHg 62%
    06:00 +22°C° 0 mm 3 m/s 764 mmHg 59%
    07:00 +22°C° 0 mm 3 m/s 764 mmHg 56%
    08:00 +25°C° 0 mm 2 m/s 764 mmHg 50%
    09:00 +26°C° 0 mm 2 m/s 764 mmHg 45%
    10:00 +28°C° 0 mm 2 m/s 764 mmHg 40%
    11:00 +29°C° 0 mm 2 m/s 764 mmHg 36%
    12:00 +30°C° 0 mm 2 m/s 764 mmHg 33%
    13:00 +32°C° 0 mm 2 m/s 764 mmHg 30%
    14:00 +31°C° 0 mm 2 m/s 763 mmHg 31%
    15:00 +31°C° 0 mm 3 m/s 763 mmHg 33%
    16:00 +31°C° 0 mm 3 m/s 763 mmHg 35%
    17:00 +30°C° 0 mm 3 m/s 763 mmHg 39%
    18:00 +28°C° 0 mm 2 m/s 763 mmHg 44%
    19:00 +27°C° 0 mm 2 m/s 763 mmHg 48%
    20:00 +26°C° 0 mm 2 m/s 763 mmHg 51%
    21:00 +25°C° 0 mm 1 m/s 763 mmHg 54%
    22:00 +24°C° 0 mm 1 m/s 763 mmHg 57%
    23:00 +24°C° 0 mm 1 m/s 763 mmHg 59%

    12 Junho, Sexta-feira

    Tempo Temperatura Precipitação Vento Pressão Humidade
    00:00 +23°C° 0 mm 2 m/s 763 mmHg 61%
    01:00 +23°C° 0 mm 2 m/s 763 mmHg 63%
    02:00 +21°C° 0 mm 2 m/s 763 mmHg 65%
    03:00 +21°C° 0 mm 2 m/s 763 mmHg 66%
    04:00 +22°C° 0 mm 1 m/s 763 mmHg 67%
    05:00 +23°C° 0 mm 2 m/s 763 mmHg 64%
    06:00 +24°C° 0 mm 2 m/s 763 mmHg 61%
    07:00 +25°C° 0 mm 2 m/s 764 mmHg 58%
    08:00 +26°C° 0 mm 2 m/s 763 mmHg 52%
    09:00 +28°C° 0 mm 2 m/s 763 mmHg 46%
    10:00 +30°C° 0 mm 2 m/s 763 mmHg 39%
    11:00 +31°C° 0 mm 2 m/s 763 mmHg 39%
    12:00 +31°C° 0 mm 3 m/s 762 mmHg 38%
    13:00 +33°C° 0 mm 3 m/s 762 mmHg 38%
    14:00 +33°C° 0 mm 3 m/s 762 mmHg 40%
    15:00 +33°C° 0 mm 3 m/s 761 mmHg 41%
    16:00 +33°C° 0 mm 3 m/s 761 mmHg 43%
    17:00 +31°C° 0 mm 3 m/s 761 mmHg 48%
    18:00 +29°C° 0 mm 3 m/s 761 mmHg 52%
    19:00 +28°C° 0 mm 2 m/s 761 mmHg 56%
    20:00 +27°C° 0 mm 2 m/s 761 mmHg 59%
    21:00 +26°C° 0 mm 2 m/s 761 mmHg 62%
    22:00 +25°C° 0 mm 2 m/s 762 mmHg 65%
    23:00 +25°C° 0 mm 1 m/s 761 mmHg 68%
    Mostrar mais